Regional Weather Roundup
Issued by NWS

Home | Current Version | Previous Version | Graphics & Text | Print | Product List | Glossary On
Versions: 1 2 3 4 5 6 7 8 9 10 11 12 13 14 15 16 17 18 19 20 21 22 23 24 25 26 27 28 29 30 31 32 33 34 35 36 37 38 39 40 41 42 43 44 45 46 47 48 49 50
000
ASUS43 KMPX 301010
RWRMN
WEATHER ROUNDUP FOR MINNESOTA
NATIONAL WEATHER SERVICE TWIN CITIES/CHANHASSEN MN
500 AM CDT SAT JUL 30 2016


NOTE: "FAIR" INDICATES FEW OR NO CLOUDS BELOW 12,000 FEET WITH NO
SIGNIFICANT WEATHER AND/OR OBSTRUCTIONS TO VISIBILITY. N/A MEANS
CURRENT SKY AND/OR WEATHER CONDITIONS ARE NOT AVAILABLE.

MNZ060>063-068>070-301100-
   Twin Cities Metro

CITY           SKY/WX    TMP DP  RH WIND       PRES   REMARKS
TWIN CITIES    CLOUDY    69  58  67 NE3       30.02S
ST PAUL        MOCLDY    66  59  78 CALM      30.03R
CRYSTAL        MOCLDY    61  56  83 CALM      30.01S
BLAINE         CLEAR     61  61 100 CALM      30.03S
LAKEVILLE      CLOUDY    63  63 100 CALM      30.02F
EDEN PRAIRIE   MOCLDY    64  57  78 CALM      30.01S
LAKEVILLE      CLOUDY    63  63 100 CALM      30.02F
SOUTH ST PAUL  CLOUDY    67  58  74 CALM      30.02S
LAKE ELMO      CLOUDY    63  61  94 NE3       30.04S
$$
MNZ001>005-007-008-013>017-022>024-027-028-301100-
   Northwest Minnesota

CITY           SKY/WX    TMP DP  RH WIND       PRES   REMARKS
BEMIDJI        CLEAR     58  56  94 CALM      30.02S
HALLOCK        PTCLDY    59  55  88 SE6       29.95F
ROSEAU         CLEAR     54  48  82 S3        29.98S
WARROAD        CLEAR     57  54  88 S3        29.99S
THIEF RVR FALL CLOUDY    57  55  93 SE3       29.99S
CROOKSTON      RAIN      64  63  94 S3        29.97F
FOSSTON        MOCLDY    63  57  82 SE6       30.00F
DETROIT LAKES  CLOUDY    64  61  88 S8        30.03R
MOORHEAD       MOCLDY    64  61  88 SE7       29.99S
PARK RAPIDS    CLEAR     61  56  83 SE6       30.03R
MAHNOMEN       CLOUDY    64  61  90 S5        30.00S
$$
MNZ006-009>011-018-025>026-301100-
   North Central Minnesota

CITY           SKY/WX    TMP DP  RH WIND       PRES   REMARKS
BAUDETTE       PTCLDY    57  55  93 SE3       29.99F
FLAG ISLAND    CLEAR     68  61  77 CALM      29.96F
INTL FALLS     PTCLDY    54  52  93 SE3       30.03S
WASKISH        CLEAR     57  55  94 CALM      30.01S FOG
BIG FORK       CLOUDY    54  52  94 CALM      30.05S
LONGVILLE      PTCLDY    57  55  94 CALM      30.04S
GRAND RAPIDS   CLEAR     51  50  96 CALM      30.08R
CRANE LAKE     CLOUDY    46  46 100 CALM      30.07S
ORR            PTCLDY    55  48  76 CALM      30.04S
COOK           PTCLDY    48  48 100 CALM      30.07S
WALKER         FAIR      60  54  79 SE5       30.03S
$$
MNZ012-019>021-037-301100-
   Northeast Minnesota

CITY           SKY/WX    TMP DP  RH WIND       PRES   REMARKS
DULUTH         CLOUDY    53  52  96 CALM      30.06R
ELY            CLEAR     46  45  93 CALM      30.07S
HIBBING        FOG       44  43  96 CALM      30.06S VSB 1
EVELETH        CLOUDY    46  45  97 CALM      30.07S FOG
DULUTH HARBOR  CLOUDY    57  55  94 CALM      30.05S
TWO HARBORS    PTCLDY    52  46  82 CALM      30.04S
SILVER BAY     PTCLDY    46  46 100 CALM      30.04S
GRAND MARAIS     N/A     52  50  93 NW5       30.06S
G MARAIS ARPRT CLEAR     45  41  87 CALM      30.10S
$$
MNZ029>031-032-039>041-046>048-054>057-064-301100-
   West Central Minnesota

CITY           SKY/WX    TMP DP  RH WIND       PRES   REMARKS
FERGUS FALLS   MOCLDY    64  61  88 SE7       30.03R
WHEATON        CLOUDY    64  61  88 CALM      30.03R
MORRIS         CLEAR     57  57 100 SE6       30.01F
ALEXANDRIA     CLEAR     61  57  87 S3        30.05S
ELBOW LAKE     MOCLDY    61  59  93 E5        30.03R
WADENA         CLEAR     54  54 100 SE3       30.04R
GLENWOOD       CLEAR     61  57  88 CALM      30.05S
APPLETON       CLEAR     57  54  88 CALM      30.01F
BENSON         CLEAR     57  54  88 CALM      30.03S
ORTONVILLE     CLOUDY    61  55  82 SE5       30.01F
MADISON        CLEAR     57  55  94 CALM      30.01F
WILLMAR        FAIR      59  57  94 CALM      30.05S
$$
MNZ033>034-036-042>043-049>051-058-059-301100-
   Central Minnesota

CITY           SKY/WX    TMP DP  RH WIND       PRES   REMARKS
ST CLOUD       CLEAR     53  53 100 CALM      30.04R
SAUK CENTRE    FAIR      54  54  99 CALM      30.05S
PAYNESVILLE    FOG       55  55 100 CALM      30.05S VSB 3/4
AITKIN         PTCLDY    52  48  87 CALM      30.04S FOG
PINE RIVER     PTCLDY    55  55 100 CALM      30.08R
BRAINERD       CLEAR     56  55  97 CALM      30.05R
STAPLES        PTCLDY    55  54  94 CALM      30.05R
LONG PRAIRIE   FAIR      55  54  94 CALM      30.05S
LITTLE FALLS   CLEAR     54  52  94 CALM      30.05S
LITCHFIELD     CLEAR     61  61 100 CALM      30.05R
BUFFALO        PTCLDY    58  55  88 CALM      30.04S
MAPLE LAKE     CLEAR     55  55  97 CALM      30.05R
HUTCHINSON     FOG       55  55  99 W3        30.04S VSB 3/4
$$
MNZ037-044-045-052-053-301100-
   East Central Minnesota

CITY           SKY/WX    TMP DP  RH WIND       PRES   REMARKS
PRINCETON      CLEAR     55  54  94 CALM      30.05R
MORA           PTCLDY    54  52  94 CALM      30.07R
CAMBRIDGE      MOCLDY    57  52  82 CALM      30.02S
RUSH CITY      MOCLDY    58  55  92 CALM      30.04S
MOOSE LAKE     CLEAR     52  50  93 CALM      30.04S
HINCKLEY       FAIR      54  54 100 CALM      30.05R
CLOQUET        CLEAR     46  45  93 CALM      30.06S
MCGREGOR       CLEAR     50  48  93 CALM      30.06R
$$
MNZ071>073-080-081-089-090-097-098-301100-
   Southwest Minnesota

CITY           SKY/WX    TMP DP  RH WIND       PRES   REMARKS
MONTEVIDEO     CLEAR     57  55  94 CALM      30.04S
GRANITE FALLS  CLEAR     58  56  94 CALM      30.03F
CANBY          CLEAR     56  55  93 CALM      30.03F
MARSHALL       CLEAR     57  54  89 CALM      30.03F
REDWOOD FALLS  CLEAR     57  54  89 CALM      30.03F
OLIVIA         CLEAR     55  52  88 CALM      30.03S
PIPESTONE      CLEAR     59  54  82 CALM      30.04F
WINDOM         PTCLDY    54  52  94 CALM      30.04F
WORTHINGTON    CLEAR     53  51  93 W3        30.05F
JACKSON        CLEAR     52  50  93 CALM      30.04F
TRACY          CLEAR     60  57  91 SW6       30.04S
SLAYTON        CLEAR     54  51  90 CALM      30.05S
$$
MNZ065>067-074>077-082>085-091>093-301100-
   South Central Minnesota

CITY           SKY/WX    TMP DP  RH WIND       PRES   REMARKS
MANKATO        CLOUDY    59  50  72 CALM      30.03S
NEW ULM        CLEAR     54  52  94 NW3       30.03S
ST JAMES       PTCLDY    50  48  93 CALM      30.04F
FAIRMONT       MOCLDY    55  46  71 CALM      30.02S
GLENCOE        CLEAR     56  56  97 CALM      30.03S
FARIBAULT      CLOUDY    63  63 100 CALM      30.03S
OWATONNA       PTCLDY    61  57  88 CALM      30.03S
WASECA         CLOUDY    59  55  88 CALM      30.04S
ALBERT LEA     CLOUDY    63  61  94 CALM      30.03S
$$
MNZ078>079-086>088-094>096-301100-
   Southeast Minnesota

CITY           SKY/WX    TMP DP  RH WIND       PRES   REMARKS
ROCHESTER      CLOUDY    64  63  96 E5        30.03F
RED WING       MOCLDY    61  61 100 CALM      30.02S
STANTON        CLOUDY    63  61  94 CALM      30.01S
DODGE CENTER   MOCLDY    59  55  88 CALM      30.03F
WINONA         CLOUDY    68  64  88 CALM      30.02S
AUSTIN         PTCLDY    61  57  88 CALM      30.02S
PRESTON        CLOUDY    63  61  94 CALM      30.03F FOG
$$
ABBREVIATIONS USED IN REMARKS
   TC - TEMPERATURES IN CELSIUS
  WCI - WIND CHILL INDEX
   HX - HEAT INDEX
  VSB - VISIBILITY
$$




USA.gov is the U.S. government's official web portal to all federal, state and local government web resources and services.